QPF
0.14 0.14 0.11 0.09 0.07 0.06 0.06 0.06 0.05 0.06 0.07 0.05 0.05 0.05 0.04 0.03 0.02 0.02 0.02 0.02 0.02 0.03 0.03 0.03 0.03 0.04 0.05 0.04 0.03 0.03 0.03 0.04 0.04 0.03 0.04 0.05 0.06 0.05 0.05 0.03 0.02 0.02 0.02
0.13 0.15 0.13 0.10 0.08 0.08 0.07 0.06 0.06 0.07 0.08 0.08 0.07 0.05 0.04 0.04 0.03 0.02 0.02 0.02 0.02 0.02 0.02 0.03 0.03 0.03 0.04 0.05 0.04 0.03 0.03 0.04 0.04 0.03 0.03 0.04 0.05 0.05 0.06 0.06 0.04 0.03 0.02
0.11 0.13 0.12 0.09 0.08 0.08 0.08 0.08 0.05 0.06 0.06 0.07 0.07 0.05 0.04 0.05 0.04 0.03 0.03 0.03 0.03 0.03 0.04 0.05 0.05 0.05 0.04 0.04 0.04 0.04 0.04 0.05 0.05 0.04 0.03 0.03 0.04 0.05 0.05 0.06 0.06 0.05 0.04
0.10 0.12 0.11 0.08 0.07 0.07 0.08 0.09 0.06 0.06 0.06 0.05 0.05 0.04 0.05 0.04 0.04 0.04 0.04 0.03 0.03 0.04 0.06 0.06 0.06 0.05 0.04 0.04 0.04 0.04 0.04 0.04 0.05 0.05 0.04 0.03 0.02 0.03 0.04 0.05 0.05 0.04 0.03
0.10 0.12 0.11 0.07 0.07 0.09 0.10 0.10 0.08 0.08 0.07 0.06 0.04 0.05 0.05 0.05 0.04 0.05 0.05 0.04 0.04 0.04 0.06 0.07 0.07 0.06 0.06 0.06 0.05 0.05 0.04 0.04 0.05 0.06 0.05 0.04 0.03 0.02 0.03 0.04 0.04 0.04 0.04
0.11 0.11 0.11 0.10 0.08 0.10 0.13 0.13 0.11 0.11 0.12 0.11 0.07 0.06 0.05 0.05 0.06 0.07 0.07 0.06 0.05 0.05 0.05 0.05 0.05 0.05 0.05 0.05 0.04 0.04 0.04 0.05 0.05 0.06 0.05 0.04 0.03 0.02 0.03 0.04 0.04 0.04 0.04
0.11 0.09 0.09 0.11 0.10 0.09 0.11 0.13 0.14 0.15 0.16 0.16 0.13 0.09 0.07 0.07 0.08 0.07 0.07 0.06 0.06 0.05 0.05 0.04 0.04 0.04 0.04 0.04 0.05 0.05 0.05 0.05 0.05 0.05 0.04 0.03 0.03 0.03 0.03 0.04 0.03 0.04 0.03
0.08 0.08 0.08 0.09 0.10 0.10 0.09 0.11 0.14 0.15 0.17 0.20 0.18 0.13 0.10 0.09 0.09 0.08 0.08 0.08 0.08 0.07 0.06 0.05 0.04 0.04 0.04 0.05 0.05 0.05 0.04 0.04 0.04 0.04 0.04 0.05 0.04 0.04 0.03 0.03 0.03 0.03 0.03
0.06 0.07 0.07 0.07 0.07 0.08 0.08 0.09 0.12 0.13 0.14 0.17 0.17 0.15 0.12 0.10 0.10 0.10 0.10 0.09 0.08 0.07 0.06 0.05 0.04 0.04 0.05 0.06 0.06 0.05 0.05 0.05 0.05 0.05 0.04 0.04 0.04 0.03 0.02 0.02 0.02 0.03 0.03
0.04 0.05 0.05 0.05 0.05 0.06 0.07 0.08 0.09 0.11 0.13 0.13 0.13 0.13 0.12 0.11 0.11 0.10 0.09 0.08 0.08 0.07 0.06 0.05 0.04 0.04 0.04 0.05 0.04 0.04 0.04 0.03 0.03 0.03 0.03 0.03 0.02 0.02 0.02 0.02 0.02 0.03 0.03
0.03 0.03 0.03 0.03 0.03 0.04 0.06 0.06 0.07 0.09 0.11 0.11 0.11 0.11 0.11 0.10 0.09 0.09 0.09 0.08 0.07 0.07 0.06 0.05 0.04 0.04 0.04 0.04 0.04 0.03 0.03 0.03 0.02 0.02 0.02 0.02 0.02 0.02 0.02 0.02 0.02 0.02 0.02
0.02 0.02 0.02 0.02 0.02 0.02 0.03 0.04 0.05 0.07 0.09 0.08 0.08 0.08 0.10 0.10 0.09 0.09 0.09 0.09 0.08 0.07 0.06 0.05 0.05 0.05 0.05 0.05 0.05 0.05 0.04 0.04 0.03 0.02 0.02 0.02 0.01 0.01 0.01 0.01 0.01 0.01 0.01
0.01 0.01 0.01 0.01 0.02 0.02 0.02 0.02 0.02 0.05 0.06 0.06 0.06 0.06 0.07 0.06 0.06 0.06 0.06 0.06 0.06 0.06 0.06 0.05 0.05 0.05 0.05 0.04 0.04 0.05 0.04 0.04 0.04 0.03 0.03 0.03 0.02 0.01 0.01 0.01 0.01 0.01 0.01
0.01 0.01 0.01 0.01 0.01 0.01 0.01 0.02 0.02 0.03 0.04 0.03 0.03 0.03 0.04 0.04 0.04 0.04 0.04 0.04 0.04 0.05 0.05 0.05 0.05 0.04 0.04 0.03 0.04 0.04 0.03 0.03 0.03 0.03 0.03 0.04 0.03 0.02 0.01 0.01 0.01 0.02 0.02
0.01 0.01 0.01 0.01 0.01 0.01 0.01 0.01 0.02 0.02 0.03 0.02 0.02 0.02 0.02 0.03 0.03 0.03 0.03 0.03 0.03 0.03 0.03 0.04 0.04 0.04 0.03 0.03 0.03 0.03 0.03 0.03 0.03 0.03 0.03 0.03 0.03 0.02 0.01 0.01 0.02 0.02 0.02
0.02 0.02 0.01 0.01 0.01 0.01 0.01 0.01 0.02 0.02 0.02 0.02 0.02 0.02 0.02 0.02 0.03 0.03 0.03 0.03 0.03 0.03 0.03 0.03 0.03 0.03 0.03 0.03 0.03 0.03 0.03 0.04 0.04 0.04 0.03 0.03 0.04 0.03 0.02 0.02 0.02 0.02 0.02
0.03 0.03 0.03 0.02 0.02 0.02 0.01 0.01 0.01 0.02 0.02 0.02 0.02 0.02 0.02 0.03 0.03 0.03 0.03 0.03 0.03 0.03 0.03 0.03 0.03 0.03 0.03 0.03 0.03 0.03 0.03 0.04 0.04 0.04 0.04 0.03 0.04 0.04 0.03 0.03 0.03 0.03 0.03
0.04 0.04 0.04 0.03 0.03 0.03 0.02 0.01 0.01 0.01 0.02 0.02 0.03 0.03 0.03 0.03 0.04 0.04 0.04 0.04 0.04 0.03 0.02 0.02 0.03 0.03 0.03 0.03 0.03 0.03 0.03 0.03 0.04 0.04 0.03 0.03 0.03 0.04 0.03 0.04 0.04 0.04 0.04
0.05 0.05 0.04 0.04 0.04 0.04 0.03 0.02 0.02 0.02 0.02 0.02 0.03 0.04 0.05 0.05 0.05 0.05 0.04 0.03 0.03 0.03 0.02 0.02 0.02 0.03 0.03 0.03 0.03 0.03 0.03 0.03 0.03 0.03 0.03 0.03 0.03 0.03 0.03 0.04 0.05 0.05 0.05
0.05 0.05 0.05 0.05 0.05 0.05 0.04 0.03 0.03 0.02 0.02 0.02 0.02 0.03 0.04 0.05 0.05 0.04 0.03 0.03 0.03 0.03 0.03 0.03 0.03 0.03 0.03 0.03 0.03 0.02 0.02 0.02 0.03 0.03 0.03 0.03 0.04 0.04 0.04 0.04 0.05 0.05 0.04
0.04 0.04 0.05 0.05 0.05 0.05 0.04 0.04 0.04 0.03 0.03 0.03 0.03 0.03 0.03 0.03 0.03 0.03 0.03 0.03 0.03 0.03 0.03 0.03 0.03 0.03 0.03 0.03 0.03 0.03 0.02 0.02 0.02 0.02 0.02 0.03 0.04 0.04 0.04 0.04 0.04 0.05 0.05
0.04 0.04 0.04 0.05 0.05 0.05 0.05 0.05 0.04 0.04 0.04 0.03 0.03 0.03 0.03 0.03 0.03 0.03 0.03 0.03 0.03 0.03 0.03 0.03 0.03 0.03 0.03 0.03 0.03 0.03 0.02 0.02 0.02 0.02 0.02 0.02 0.03 0.03 0.04 0.04 0.04 0.05 0.06
0.03 0.04 0.04 0.04 0.04 0.05 0.05 0.05 0.05 0.05 0.04 0.04 0.04 0.04 0.03 0.03 0.03 0.03 0.03 0.03 0.03 0.03 0.03 0.02 0.02 0.02 0.02 0.02 0.02 0.02 0.02 0.02 0.02 0.02 0.02 0.02 0.02 0.02 0.03 0.03 0.03 0.04 0.04
0.03 0.03 0.03 0.04 0.04 0.04 0.04 0.04 0.04 0.04 0.04 0.04 0.04 0.04 0.04 0.03 0.03 0.03 0.03 0.03 0.02 0.02 0.02 0.02 0.02 0.02 0.02 0.02 0.02 0.02 0.02 0.02 0.02 0.01 0.01 0.02 0.02 0.02 0.02 0.03 0.03 0.03 0.03
0.02 0.02 0.03 0.03 0.04 0.04 0.04 0.04 0.04 0.04 0.04 0.04 0.04 0.04 0.04 0.03 0.03 0.03 0.02 0.02 0.02 0.02 0.02 0.02 0.02 0.02 0.02 0.02 0.01 0.02 0.02 0.02 0.02 0.02 0.02 0.02 0.02 0.01 0.02 0.02 0.03 0.03 0.02
0.02 0.02 0.02 0.03 0.03 0.04 0.04 0.04 0.05 0.04 0.04 0.04 0.04 0.03 0.03 0.03 0.03 0.02 0.02 0.02 0.02 0.01 0.02 0.02 0.02 0.02 0.02 0.01 0.01 0.02 0.02 0.02 0.02 0.02 0.02 0.02 0.02 0.02 0.02 0.02 0.02 0.02 0.02
MSLP
1005.77 1005.54 1005.44 1005.43 1005.51 1005.67 1005.89 1006.18 1006.55 1007.00 1007.52 1008.12 1008.76 1009.43 1010.08 1010.70 1011.25 1011.71 1012.08 1012.36 1012.58 1012.75 1012.89 1013.02 1013.15 1013.28 1013.39 1013.49 1013.54 1013.55 1013.50 1013.39 1013.25 1013.08 1012.91 1012.79 1012.75 1012.80 1012.98 1013.31 1013.78 1014.38 1015.11
1006.46 1006.21 1006.05 1005.98 1005.99 1006.05 1006.18 1006.37 1006.64 1006.99 1007.43 1007.94 1008.52 1009.14 1009.76 1010.36 1010.90 1011.36 1011.74 1012.04 1012.27 1012.45 1012.61 1012.75 1012.90 1013.06 1013.22 1013.36 1013.48 1013.56 1013.58 1013.54 1013.46 1013.35 1013.24 1013.16 1013.15 1013.23 1013.44 1013.79 1014.29 1014.91 1015.65
1007.05 1006.79 1006.61 1006.51 1006.46 1006.46 1006.51 1006.62 1006.80 1007.06 1007.40 1007.82 1008.32 1008.86 1009.42 1009.97 1010.48 1010.93 1011.31 1011.62 1011.86 1012.07 1012.25 1012.43 1012.61 1012.81 1013.02 1013.21 1013.39 1013.52 1013.61 1013.64 1013.62 1013.57 1013.51 1013.49 1013.53 1013.67 1013.94 1014.34 1014.87 1015.54 1016.29
1007.49 1007.25 1007.08 1006.96 1006.89 1006.85 1006.85 1006.90 1007.00 1007.17 1007.42 1007.74 1008.14 1008.60 1009.08 1009.57 1010.03 1010.44 1010.81 1011.12 1011.38 1011.61 1011.83 1012.05 1012.28 1012.53 1012.78 1013.02 1013.24 1013.42 1013.55 1013.63 1013.66 1013.67 1013.67 1013.71 1013.81 1014.02 1014.35 1014.82 1015.43 1016.14 1016.95
1007.79 1007.58 1007.42 1007.30 1007.22 1007.17 1007.13 1007.13 1007.18 1007.28 1007.45 1007.68 1007.99 1008.35 1008.74 1009.15 1009.54 1009.92 1010.26 1010.57 1010.85 1011.11 1011.37 1011.63 1011.91 1012.19 1012.48 1012.76 1013.01 1013.22 1013.38 1013.49 1013.55 1013.60 1013.65 1013.74 1013.91 1014.19 1014.61 1015.16 1015.84 1016.63 1017.49
1007.93 1007.75 1007.60 1007.50 1007.41 1007.34 1007.29 1007.27 1007.27 1007.33 1007.43 1007.60 1007.82 1008.09 1008.39 1008.71 1009.04 1009.36 1009.67 1009.97 1010.26 1010.55 1010.84 1011.15 1011.46 1011.78 1012.10 1012.40 1012.67 1012.89 1013.06 1013.18 1013.26 1013.33 1013.42 1013.56 1013.80 1014.15 1014.63 1015.27 1016.03 1016.90 1017.83
1007.93 1007.75 1007.61 1007.50 1007.41 1007.34 1007.28 1007.24 1007.23 1007.26 1007.33 1007.44 1007.60 1007.79 1008.02 1008.26 1008.52 1008.79 1009.06 1009.34 1009.63 1009.93 1010.25 1010.59 1010.94 1011.29 1011.63 1011.94 1012.21 1012.43 1012.60 1012.72 1012.81 1012.90 1013.01 1013.19 1013.47 1013.88 1014.43 1015.13 1015.97 1016.91 1017.91
1007.76 1007.58 1007.42 1007.29 1007.19 1007.10 1007.04 1007.01 1007.01 1007.03 1007.09 1007.18 1007.30 1007.44 1007.61 1007.79 1007.99 1008.20 1008.43 1008.69 1008.97 1009.27 1009.61 1009.97 1010.34 1010.71 1011.06 1011.38 1011.65 1011.87 1012.03 1012.15 1012.25 1012.34 1012.48 1012.68 1013.00 1013.45 1014.04 1014.79 1015.67 1016.66 1017.71
1007.46 1007.24 1007.04 1006.87 1006.74 1006.65 1006.59 1006.57 1006.58 1006.63 1006.71 1006.80 1006.91 1007.03 1007.15 1007.29 1007.43 1007.60 1007.79 1008.01 1008.27 1008.58 1008.92 1009.29 1009.67 1010.05 1010.42 1010.74 1011.02 1011.24 1011.41 1011.54 1011.64 1011.75 1011.90 1012.13 1012.47 1012.94 1013.55 1014.31 1015.21 1016.21 1017.28
1007.02 1006.75 1006.50 1006.28 1006.11 1006.00 1005.95 1005.95 1005.99 1006.08 1006.19 1006.30 1006.42 1006.54 1006.64 1006.74 1006.85 1006.97 1007.13 1007.32 1007.56 1007.85 1008.19 1008.56 1008.96 1009.35 1009.73 1010.07 1010.35 1010.59 1010.77 1010.92 1011.05 1011.18 1011.36 1011.61 1011.96 1012.43 1013.04 1013.79 1014.66 1015.64 1016.69
1006.49 1006.15 1005.84 1005.56 1005.36 1005.22 1005.17 1005.20 1005.28 1005.41 1005.56 1005.71 1005.85 1005.97 1006.07 1006.15 1006.23 1006.32 1006.44 1006.61 1006.83 1007.11 1007.45 1007.82 1008.22 1008.62 1009.01 1009.37 1009.68 1009.94 1010.15 1010.33 1010.49 1010.66 1010.87 1011.15 1011.51 1011.99 1012.58 1013.29 1014.12 1015.05 1016.04
1005.91 1005.50 1005.11 1004.79 1004.54 1004.39 1004.34 1004.38 1004.50 1004.66 1004.85 1005.03 1005.19 1005.32 1005.42 1005.49 1005.55 1005.62 1005.72 1005.87 1006.08 1006.35 1006.68 1007.06 1007.46 1007.87 1008.27 1008.64 1008.97 1009.26 1009.51 1009.73 1009.94 1010.16 1010.42 1010.73 1011.12 1011.60 1012.17 1012.85 1013.63 1014.48 1015.40
1005.30 1004.83 1004.40 1004.02 1003.75 1003.58 1003.52 1003.57 1003.70 1003.88 1004.08 1004.28 1004.45 1004.58 1004.67 1004.73 1004.78 1004.84 1004.93 1005.08 1005.28 1005.55 1005.88 1006.25 1006.65 1007.06 1007.46 1007.84 1008.19 1008.50 1008.78 1009.05 1009.31 1009.59 1009.91 1010.27 1010.70 1011.20 1011.78 1012.44 1013.17 1013.97 1014.82
1004.70 1004.20 1003.72 1003.32 1003.01 1002.82 1002.75 1002.79 1002.90 1003.08 1003.27 1003.45 1003.61 1003.73 1003.81 1003.86 1003.90 1003.96 1004.05 1004.20 1004.41 1004.67 1005.00 1005.37 1005.76 1006.16 1006.54 1006.91 1007.25 1007.57 1007.87 1008.17 1008.49 1008.83 1009.21 1009.65 1010.15 1010.70 1011.32 1011.99 1012.72 1013.49 1014.30
1004.14 1003.61 1003.12 1002.69 1002.36 1002.15 1002.04 1002.04 1002.12 1002.25 1002.40 1002.55 1002.67 1002.75 1002.81 1002.84 1002.88 1002.95 1003.05 1003.21 1003.43 1003.70 1004.03 1004.38 1004.74 1005.11 1005.45 1005.78 1006.09 1006.38 1006.68 1007.00 1007.35 1007.75 1008.21 1008.74 1009.32 1009.97 1010.67 1011.41 1012.19 1012.98 1013.79
1003.60 1003.07 1002.57 1002.13 1001.78 1001.53 1001.38 1001.32 1001.34 1001.40 1001.47 1001.55 1001.61 1001.65 1001.67 1001.70 1001.74 1001.81 1001.93 1002.11 1002.34 1002.62 1002.93 1003.25 1003.57 1003.88 1004.16 1004.41 1004.65 1004.89 1005.15 1005.46 1005.83 1006.28 1006.81 1007.44 1008.15 1008.92 1009.75 1010.61 1011.49 1012.37 1013.24
1003.07 1002.55 1002.05 1001.60 1001.22 1000.93 1000.73 1000.60 1000.53 1000.50 1000.49 1000.48 1000.47 1000.45 1000.44 1000.45 1000.49 1000.58 1000.72 1000.92 1001.16 1001.43 1001.72 1002.00 1002.26 1002.48 1002.66 1002.81 1002.95 1003.11 1003.31 1003.58 1003.95 1004.43 1005.04 1005.77 1006.61 1007.53 1008.52 1009.54 1010.57 1011.60 1012.59
1002.52 1002.01 1001.51 1001.05 1000.65 1000.32 1000.05 999.85 999.69 999.56 999.46 999.36 999.28 999.21 999.17 999.17 999.22 999.32 999.48 999.69 999.94 1000.20 1000.45 1000.67 1000.84 1000.96 1001.02 1001.06 1001.08 1001.13 1001.25 1001.47 1001.82 1002.32 1002.99 1003.82 1004.79 1005.87 1007.04 1008.24 1009.46 1010.65 1011.80
1001.94 1001.43 1000.93 1000.46 1000.04 999.67 999.35 999.07 998.83 998.62 998.43 998.27 998.12 998.02 997.95 997.94 997.99 998.11 998.28 998.50 998.74 998.97 999.17 999.32 999.40 999.40 999.35 999.25 999.16 999.10 999.13 999.29 999.61 1000.13 1000.85 1001.76 1002.85 1004.08 1005.41 1006.80 1008.20 1009.58 1010.90
1001.31 1000.80 1000.31 999.84 999.40 999.00 998.64 998.31 998.00 997.73 997.48 997.26 997.08 996.94 996.87 996.86 996.91 997.04 997.21 997.42 997.63 997.82 997.97 998.03 998.02 997.92 997.75 997.54 997.34 997.19 997.15 997.25 997.55 998.07 998.82 999.80 1000.99 1002.33 1003.80 1005.34 1006.91 1008.45 1009.93
1000.65 1000.15 999.66 999.19 998.75 998.34 997.95 997.59 997.25 996.94 996.66 996.41 996.21 996.07 995.99 995.98 996.04 996.16 996.32 996.50 996.68 996.82 996.89 996.88 996.78 996.60 996.34 996.05 995.78 995.57 995.47 995.55 995.84 996.36 997.14 998.16 999.40 1000.82 1002.38 1004.03 1005.70 1007.36 1008.96
1000.01 999.52 999.04 998.58 998.15 997.74 997.35 996.99 996.65 996.33 996.04 995.79 995.59 995.45 995.37 995.35 995.40 995.50 995.64 995.78 995.90 995.98 995.99 995.92 995.75 995.51 995.20 994.87 994.57 994.34 994.25 994.32 994.62 995.15 995.94 996.98 998.25 999.70 1001.29 1002.98 1004.71 1006.42 1008.09
999.44 998.96 998.50 998.06 997.65 997.27 996.90 996.55 996.22 995.92 995.65 995.41 995.23 995.09 995.01 994.99 995.01 995.08 995.16 995.25 995.31 995.33 995.28 995.15 994.95 994.68 994.37 994.06 993.78 993.58 993.52 993.64 993.96 994.52 995.32 996.36 997.61 999.05 1000.62 1002.29 1003.99 1005.70 1007.37
998.96 998.51 998.08 997.68 997.30 996.95 996.61 996.30 996.00 995.73 995.48 995.27 995.09 994.96 994.87 994.83 994.82 994.83 994.86 994.88 994.88 994.83 994.73 994.57 994.36 994.11 993.84 993.58 993.37 993.26 993.27 993.45 993.83 994.41 995.22 996.25 997.46 998.84 1000.35 1001.94 1003.58 1005.22 1006.84
998.61 998.19 997.80 997.44 997.10 996.79 996.49 996.22 995.96 995.71 995.50 995.30 995.14 995.00 994.89 994.82 994.76 994.72 994.68 994.63 994.56 994.47 994.33 994.17 993.97 993.76 993.56 993.39 993.29 993.28 993.40 993.66 994.10 994.73 995.54 996.54 997.69 998.99 1000.40 1001.89 1003.42 1004.96 1006.49
998.38 998.00 997.65 997.34 997.04 996.77 996.51 996.27 996.04 995.83 995.63 995.45 995.29 995.15 995.02 994.90 994.79 994.69 994.59 994.48 994.35 994.22 994.07 993.91 993.75 993.61 993.50 993.44 993.45 993.56 993.79 994.15 994.65 995.31 996.12 997.08 998.17 999.38 1000.68 1002.04 1003.45 1004.88 1006.30
Thickness
5510 5514 5518 5522 5525 5528 5530 5532 5534 5536 5538 5540 5541 5542 5543 5543 5543 5542 5541 5540 5540 5539 5538 5538 5537 5537 5536 5535 5533 5532 5531 5530 5529 5531 5530 5530 5529 5528 5526 5525 5524 5522 5520
5498 5502 5506 5510 5513 5516 5519 5522 5525 5527 5529 5531 5533 5534 5535 5535 5535 5535 5534 5533 5533 5531 5530 5529 5528 5528 5527 5526 5525 5523 5522 5521 5520 5520 5519 5519 5519 5518 5516 5515 5513 5512 5510
5485 5489 5493 5497 5501 5505 5508 5512 5515 5518 5520 5522 5524 5526 5527 5527 5528 5528 5527 5527 5525 5524 5523 5522 5520 5520 5519 5518 5516 5515 5513 5513 5512 5511 5510 5509 5508 5506 5505 5503 5502 5501 5499
5473 5477 5480 5485 5489 5493 5497 5500 5504 5507 5510 5513 5515 5517 5519 5519 5520 5520 5519 5519 5517 5516 5515 5513 5512 5512 5512 5510 5508 5507 5505 5503 5502 5501 5499 5498 5496 5495 5493 5491 5490 5489 5488
5462 5465 5468 5473 5477 5481 5484 5488 5492 5495 5499 5503 5505 5508 5509 5511 5511 5511 5511 5510 5508 5507 5505 5504 5504 5504 5503 5501 5500 5499 5496 5494 5493 5491 5490 5489 5487 5485 5483 5481 5479 5477 5477
5451 5454 5457 5461 5465 5469 5472 5476 5479 5483 5488 5492 5495 5497 5499 5501 5502 5503 5502 5502 5500 5498 5497 5496 5495 5494 5494 5493 5492 5490 5488 5487 5485 5483 5482 5481 5480 5477 5475 5472 5469 5466 5466
5440 5443 5446 5449 5453 5456 5460 5464 5467 5472 5477 5480 5484 5487 5489 5490 5491 5492 5493 5492 5490 5489 5488 5487 5486 5486 5485 5484 5482 5481 5480 5479 5478 5476 5475 5474 5471 5470 5466 5462 5459 5456 5455
5431 5433 5435 5437 5440 5444 5447 5451 5455 5460 5464 5468 5471 5476 5478 5479 5480 5481 5482 5481 5480 5479 5478 5478 5477 5477 5475 5475 5473 5471 5470 5469 5467 5467 5467 5466 5464 5461 5458 5455 5452 5447 5444
5420 5422 5424 5427 5429 5432 5436 5439 5443 5448 5453 5455 5459 5462 5465 5467 5469 5470 5471 5469 5469 5469 5468 5468 5468 5467 5466 5466 5464 5461 5460 5459 5458 5457 5456 5455 5454 5452 5449 5445 5441 5438 5435
5410 5412 5415 5417 5419 5422 5425 5428 5432 5436 5440 5443 5446 5450 5452 5454 5456 5458 5459 5459 5458 5458 5458 5457 5457 5458 5457 5456 5455 5453 5451 5449 5448 5446 5445 5444 5443 5441 5440 5437 5434 5430 5426
5400 5403 5405 5407 5409 5411 5414 5417 5421 5425 5429 5431 5435 5437 5439 5442 5444 5447 5448 5448 5449 5448 5448 5448 5448 5448 5448 5447 5446 5444 5443 5441 5439 5437 5435 5434 5434 5432 5431 5428 5426 5423 5419
5393 5395 5396 5398 5400 5402 5404 5406 5409 5413 5417 5420 5422 5424 5426 5428 5431 5433 5435 5437 5439 5439 5439 5439 5439 5438 5438 5438 5436 5435 5434 5432 5430 5428 5427 5425 5424 5423 5421 5419 5417 5414 5412
5385 5386 5387 5389 5390 5393 5395 5396 5399 5402 5406 5409 5411 5413 5414 5416 5418 5421 5423 5426 5427 5428 5429 5429 5429 5429 5428 5427 5426 5425 5424 5422 5421 5419 5417 5416 5415 5413 5412 5410 5407 5405 5404
5378 5379 5381 5382 5383 5384 5386 5388 5390 5392 5395 5399 5402 5403 5403 5405 5407 5409 5412 5414 5416 5416 5417 5418 5419 5418 5418 5417 5416 5415 5414 5413 5412 5410 5409 5407 5405 5404 5403 5401 5399 5397 5394
5371 5373 5374 5376 5377 5378 5379 5380 5382 5385 5387 5390 5392 5393 5395 5396 5399 5401 5403 5404 5405 5407 5408 5408 5408 5407 5406 5405 5404 5404 5404 5404 5403 5401 5399 5398 5397 5396 5394 5392 5390 5388 5386
5364 5366 5367 5369 5370 5371 5372 5374 5376 5378 5380 5383 5385 5385 5387 5389 5391 5393 5395 5396 5397 5398 5399 5399 5398 5398 5397 5396 5395 5394 5394 5394 5393 5392 5390 5389 5388 5387 5385 5384 5382 5380 5379
5356 5358 5360 5362 5364 5365 5366 5367 5368 5370 5372 5374 5377 5379 5380 5381 5383 5385 5387 5388 5388 5389 5389 5389 5389 5389 5388 5387 5386 5385 5385 5384 5384 5383 5382 5381 5379 5378 5377 5376 5375 5373 5371
5350 5352 5354 5356 5357 5358 5360 5361 5362 5363 5364 5365 5368 5371 5373 5375 5376 5378 5379 5379 5378 5379 5379 5380 5380 5380 5379 5378 5377 5377 5376 5376 5376 5375 5374 5373 5372 5371 5369 5368 5367 5366 5365
5345 5346 5348 5349 5351 5352 5353 5354 5355 5356 5357 5358 5360 5363 5365 5367 5369 5370 5371 5371 5371 5370 5371 5371 5372 5371 5371 5370 5369 5369 5368 5368 5367 5366 5366 5365 5364 5363 5362 5361 5360 5360 5359
5339 5341 5343 5344 5345 5346 5347 5347 5348 5348 5350 5352 5353 5355 5358 5359 5360 5361 5362 5362 5363 5363 5363 5363 5363 5363 5363 5362 5361 5361 5360 5360 5359 5358 5358 5357 5357 5356 5355 5354 5354 5354 5353
5333 5335 5337 5338 5339 5340 5341 5341 5342 5343 5344 5345 5347 5349 5352 5353 5353 5354 5354 5355 5355 5355 5355 5355 5355 5355 5355 5354 5353 5353 5352 5352 5351 5351 5351 5351 5350 5350 5349 5348 5348 5347 5347
5327 5329 5330 5331 5333 5334 5335 5336 5337 5338 5339 5340 5342 5343 5346 5346 5346 5347 5347 5348 5348 5348 5348 5348 5348 5348 5347 5346 5346 5346 5345 5345 5345 5344 5345 5344 5344 5344 5343 5342 5342 5341 5341
5321 5322 5324 5325 5327 5329 5330 5331 5332 5333 5334 5335 5336 5337 5338 5339 5339 5340 5340 5340 5340 5341 5341 5341 5341 5340 5340 5339 5339 5339 5339 5339 5339 5339 5339 5339 5339 5338 5338 5337 5336 5335 5335
5315 5316 5318 5319 5321 5322 5323 5325 5326 5327 5328 5329 5330 5331 5331 5332 5332 5333 5333 5333 5333 5333 5333 5333 5333 5333 5333 5333 5332 5332 5333 5333 5333 5333 5333 5333 5333 5332 5332 5331 5331 5330 5329
5310 5311 5312 5313 5315 5316 5317 5318 5320 5321 5322 5323 5324 5325 5325 5325 5326 5326 5325 5325 5326 5326 5326 5326 5326 5326 5326 5326 5326 5327 5327 5328 5328 5328 5328 5328 5327 5327 5327 5326 5326 5325 5324
5305 5306 5307 5307 5308 5309 5310 5311 5313 5314 5316 5317 5318 5318 5319 5319 5319 5319 5319 5319 5319 5319 5319 5319 5319 5320 5320 5320 5321 5321 5321 5322 5322 5322 5322 5322 5322 5322 5321 5321 5320 5320 5319